[[{"header":{"parameterUnit":"m.s-1","parameterCategory":1,"la1":30.2991,"la2":30.254,"lo1":-89.0895,"lo2":-89.0444,"dy":0.0017,"dx":0.0017,"nx":28,"ny":28,"refTime":"2025-12-10T09:00:00:Z","depth":0,"parameterNumber":2,"parameterNumberName":"U-component_of_WINDS"},"data":[0,0,0,0,0,0,0,0,0,0,0,0,0,0,0,0,0,0,0,0,0,0,0,0,0,0,0,0,0,0,0,0,0,0,0,0,0,0,0,0,0,0,0,0,0,0,0,0,0,0,0,0,0,0,0,0,0,0,-0.7143,-0.7143,0,-0.7083,-0.7082,-0.7081,-0.702,-0.7019,-0.7018,-0.7017,-0.6956,-0.6955,-0.6955,0,0,0,0,0,0,0,0,0,0,0,0,0,-0.7207,-0.7206,-0.7143,-0.7143,-0.7142,-0.7083,-0.7082,-0.7081,-0.702,-0.7019,-0.7018,-0.7017,-0.6957,-0.6956,-0.6955,0,0,0,0,0,0,0,0,0,0,0,0,0,-0.7166,-0.7206,-0.7143,-0.7104,-0.71,-0.7083,-0.7082,-0.7081,-0.702,-0.7019,-0.7018,-0.7016,-0.6957,-0.6956,-0.6954,-0.6972,0,0,-0.6951,-0.695,0,0,0,0,0,0,0,0,-0.7168,-0.7164,-0.7111,-0.7107,-0.7102,-0.7057,-0.7082,-0.7045,-0.702,-0.705,-0.7017,-0.7016,-0.6991,-0.6987,-0.6978,-0.6969,-0.6966,-0.695,-0.695,-0.6949,-0.6949,0,0,0,0,0,0,0,-0.7171,-0.7166,-0.7119,-0.711,-0.7105,-0.709,-0.7083,-0.7075,-0.7029,-0.7048,-0.7043,-0.7037,-0.6988,-0.698,-0.6976,-0.6966,-0.6951,-0.6949,-0.6949,-0.6948,-0.6969,-0.697,0,0,0,0,0,0,-0.718,-0.7169,-0.7121,-0.7118,-0.7133,-0.709,-0.7082,-0.7073,-0.7028,-0.702,-0.7038,-0.7034,-0.6983,-0.6978,-0.6974,-0.6993,-0.6949,-0.6948,-0.6947,-0.6967,-0.6969,-0.697,0,0,0,0,0,0,-0.7182,-0.7176,-0.7124,-0.7142,-0.7134,-0.709,-0.7081,-0.7073,-0.7064,-0.7021,-0.7013,-0.7037,-0.6981,-0.6976,-0.6973,-0.699,-0.6947,-0.6946,-0.6966,-0.6968,-0.697,-0.7029,0,0,0,0,0,0,-0.7184,-0.7177,-0.7183,-0.7142,-0.7133,-0.7124,-0.7082,-0.7072,-0.7062,-0.7056,-0.7018,-0.7011,-0.698,-0.6975,-0.6972,-0.6987,-0.6945,-0.6964,-0.6967,-0.6969,-0.7026,-0.7033,-0.7039,0,0,0,0,0,-0.7186,-0.7202,-0.7184,-0.7178,-0.714,-0.7125,-0.7119,-0.7083,-0.7063,-0.7069,-0.7042,-0.7012,-0.6988,-0.6976,-0.6971,-0.6986,-0.6963,-0.6966,-0.6969,-0.7023,-0.7032,-0.7039,0,0,0,0,0,0,-0.7246,-0.7196,-0.7175,-0.7179,-0.7156,-0.7114,-0.7121,-0.7094,-0.7077,-0.7073,-0.7029,-0.7021,-0.7023,-0.7004,-0.6991,-0.7001,-0.6972,-0.6974,-0.7014,-0.7022,-0.7029,-0.7034,-0.6944,0,0,0,0,0,-0.726,-0.7252,-0.7208,-0.7216,-0.7205,-0.7165,-0.7157,-0.7131,-0.7107,-0.7097,-0.7069,-0.7047,-0.7034,-0.7027,-0.7013,-0.7022,-0.7014,-0.7031,-0.7038,-0.7043,-0.7046,-0.7051,-0.7058,-0.698,-0.698,-0.698,0,0,-0.7288,-0.726,-0.7257,-0.7227,-0.7207,-0.72,-0.7158,-0.7152,-0.7146,-0.7096,-0.7092,-0.7071,-0.7043,-0.7047,-0.7047,-0.7031,-0.7066,-0.7047,-0.7052,-0.7052,-0.7055,-0.7062,-0.7069,-0.6982,-0.6982,-0.6981,0,0,-0.7336,-0.7313,-0.7317,-0.7298,-0.7268,-0.7241,-0.7242,-0.7204,-0.7188,-0.7183,-0.7146,-0.7139,-0.7118,-0.71,-0.7088,-0.713,-0.7102,-0.7126,-0.7162,-0.7168,-0.7174,-0.7179,-0.7195,-0.7202,-0.7129,-0.7129,-0.7129,0,-0.7375,-0.7362,-0.7323,-0.7319,-0.7308,-0.7262,-0.7266,-0.7249,-0.7216,-0.7209,-0.7192,-0.7165,-0.7143,-0.7142,-0.7153,-0.7144,-0.7145,-0.7131,-0.7176,-0.7181,-0.7185,-0.72,-0.7206,-0.7132,-0.7132,-0.7131,-0.7131,0,-0.7412,-0.7404,-0.7411,-0.7381,-0.737,-0.737,-0.7331,-0.7325,-0.73,-0.7275,-0.7271,-0.7243,-0.7223,-0.7221,-0.7196,-0.7217,-0.7209,-0.7184,-0.7153,-0.7197,-0.721,-0.7215,-0.7137,-0.7136,-0.7135,-0.7134,0,0,-0.7497,-0.7445,-0.7448,-0.7434,-0.7397,-0.7391,-0.7389,-0.737,-0.7366,-0.7344,-0.7343,-0.7327,-0.7304,-0.7291,-0.7264,-0.7268,-0.7305,-0.7243,-0.7242,-0.7257,-0.7328,-0.7347,-0.7355,-0.7286,-0.7287,-0.7287,-0.7331,0,-0.7539,-0.7534,-0.7499,-0.7504,-0.7497,-0.7453,-0.7452,-0.743,-0.7407,-0.7398,-0.7372,-0.7362,-0.7332,-0.7324,-0.7326,-0.73,-0.7319,-0.7296,-0.7285,-0.7285,-0.7295,-0.7361,-0.7382,-0.7424,-0.7335,-0.7336,-0.7337,0,-0.7588,-0.7571,-0.7575,-0.754,-0.7535,-0.7535,-0.7515,-0.7506,-0.748,-0.7463,-0.7449,-0.7419,-0.7415,-0.7386,-0.7382,-0.7367,-0.7361,-0.7347,-0.7348,-0.7346,-0.7315,-0.7363,-0.7436,-0.7443,-0.7344,-0.7344,-0.7343,0,-0.7652,-0.7628,-0.7628,-0.7618,-0.7576,-0.7577,-0.7559,-0.7532,-0.7523,-0.7505,-0.7499,-0.7481,-0.7472,-0.7459,-0.7425,-0.7407,-0.7426,-0.7393,-0.7412,-0.7413,-0.7419,-0.742,-0.7494,-0.7413,-0.7413,-0.7413,-0.7413,0,-0.7704,-0.7709,-0.7656,-0.7657,-0.7661,-0.762,-0.7626,-0.7605,-0.7581,-0.7577,-0.7538,-0.7535,-0.7489,-0.7482,-0.7455,-0.7456,-0.7452,-0.7439,-0.7432,-0.7443,-0.7445,-0.7439,-0.7436,-0.7414,-0.7414,-0.7414,-0.7413,0,-0.7775,-0.774,-0.7738,-0.7698,-0.7688,-0.7694,-0.766,-0.7659,-0.7633,-0.7629,-0.7625,-0.7586,-0.7574,-0.7539,-0.7519,-0.7501,-0.7511,-0.7497,-0.752,-0.7516,-0.7538,-0.7537,-0.7612,-0.762,-0.7533,-0.7534,-0.7535,0,-0.7811,-0.7814,-0.7775,-0.7769,-0.7754,-0.7745,-0.7735,-0.7696,-0.7687,-0.7659,-0.7662,-0.7647,-0.7634,-0.7618,-0.7588,-0.7572,-0.7558,-0.7586,-0.7556,-0.7567,-0.7561,-0.7561,-0.7562,-0.7593,-0.7594,-0.7595,-0.7595,0,-0.788,-0.7862,-0.785,-0.7832,-0.7822,-0.7806,-0.7787,-0.7785,-0.774,-0.7733,-0.7721,-0.7711,-0.769,-0.7677,-0.7657,-0.7639,-0.7611,-0.7605,-0.7609,-0.7621,-0.7635,-0.7629,-0.7539,-0.7604,-0.7603,-0.7602,-0.7602,-0.7602,-0.7935,-0.7937,-0.791,-0.7897,-0.7879,-0.7863,-0.7861,-0.7835,-0.7824,-0.7804,-0.7781,-0.7773,-0.7747,-0.7717,-0.7702,-0.7695,-0.7679,-0.7685,-0.7687,-0.7689,-0.7695,-0.7635,-0.7691,-0.7691,-0.7691,-0.769,-0.769,0,-0.8003,-0.7984,-0.7973,-0.7949,-0.7939,-0.7912,-0.7891,-0.7885,-0.7878,-0.7856,-0.7844,-0.7831,-0.7818,-0.7787,-0.7771,-0.7771,-0.7758,-0.7769,-0.7769,-0.7766,-0.7709,-0.7708,-0.778,-0.778,-0.778,-0.778,-0.778,-0.778,-0.8038,-0.8038,-0.8018,-0.801,-0.799,-0.7981,-0.7971,-0.7956,-0.7939,-0.7927,-0.7916,-0.7895,-0.787,-0.7852,-0.784,-0.7831,-0.7828,-0.7843,-0.7831,-0.7778,-0.777,-0.7762,-0.776,-0.7842,-0.7843,-0.7888,-0.7888,-0.7889]},{"header":{"parameterUnit":"m.s-1","parameterCategory":1,"la1":30.2991,"la2":30.254,"lo1":-89.0895,"lo2":-89.0444,"dy":0.0017,"dx":0.0017,"nx":28,"ny":28,"refTime":"2025-12-10T09:00:00:Z","depth":0,"parameterNumber":3,"parameterNumberName":"V-component_of_WINDS"},"data":[0,0,0,0,0,0,0,0,0,0,0,0,0,0,0,0,0,0,0,0,0,0,0,0,0,0,0,0,0,0,0,0,0,0,0,0,0,0,0,0,0,0,0,0,0,0,0,0,0,0,0,0,0,0,0,0,0,0,0.1196,0.1196,0,0.114,0.1139,0.1138,0.1151,0.1152,0.1153,0.1154,0.1094,0.1092,0.1089,0,0,0,0,0,0,0,0,0,0,0,0,0,0.1314,0.1312,0.1197,0.1196,0.1195,0.114,0.1139,0.1138,0.115,0.1152,0.1153,0.1154,0.1095,0.1092,0.1089,0,0,0,0,0,0,0,0,0,0,0,0,0,0.1261,0.1311,0.1197,0.1195,0.1194,0.114,0.1139,0.1138,0.115,0.1152,0.1153,0.1155,0.1096,0.1092,0.1088,0.1033,0,0,0.1077,0.1075,0,0,0,0,0,0,0,0,0.1264,0.1256,0.1196,0.1195,0.1194,0.1154,0.1159,0.1103,0.115,0.1167,0.1154,0.1156,0.1113,0.1107,0.1093,0.103,0.1027,0.1076,0.1074,0.1072,0.1071,0,0,0,0,0,0,0,0.1267,0.1259,0.1174,0.1195,0.1193,0.1196,0.119,0.1148,0.1131,0.1165,0.1166,0.1159,0.1112,0.1097,0.1092,0.1026,0.1076,0.1073,0.1071,0.1069,0.0913,0.0912,0,0,0,0,0,0,0.1272,0.1262,0.1176,0.1172,0.1233,0.1193,0.1186,0.1165,0.1132,0.1128,0.1158,0.116,0.1103,0.1096,0.109,0.1021,0.1072,0.1069,0.1066,0.0915,0.0913,0.0911,0,0,0,0,0,0,0.1275,0.1264,0.1178,0.1217,0.1206,0.1189,0.1165,0.1163,0.1148,0.1126,0.1123,0.1145,0.1104,0.1095,0.1047,0.1019,0.1067,0.1063,0.0917,0.0914,0.0912,0.0884,0,0,0,0,0,0,0.1278,0.1265,0.1244,0.1217,0.1204,0.1136,0.1164,0.1161,0.1141,0.1143,0.1114,0.111,0.1104,0.1052,0.1043,0.1015,0.106,0.092,0.0916,0.0913,0.0887,0.0881,0.0875,0,0,0,0,0,0.1282,0.1238,0.1243,0.1232,0.1178,0.1135,0.1127,0.1122,0.1139,0.1117,0.1104,0.1111,0.1024,0.1047,0.1037,0.1007,0.0921,0.0917,0.0913,0.089,0.0882,0.0876,0,0,0,0,0,0,0.1263,0.1235,0.1239,0.1186,0.1162,0.1137,0.1109,0.1114,0.1085,0.1088,0.1082,0.1075,0.1025,0.1012,0.1038,0.0951,0.0975,0.0969,0.0961,0.0954,0.0948,0.0951,0.1057,0,0,0,0,0,0.1252,0.122,0.1197,0.1152,0.114,0.1127,0.1108,0.1106,0.1081,0.1071,0.1054,0.1029,0.0996,0.0974,0.0943,0.0886,0.0879,0.0861,0.0855,0.085,0.0844,0.0811,0.0802,0.0897,0.0898,0.0898,0,0,0.123,0.1211,0.1191,0.1148,0.1129,0.1095,0.1118,0.1082,0.1056,0.1065,0.1018,0.1004,0.0977,0.0923,0.0899,0.091,0.0816,0.0845,0.0841,0.0837,0.0806,0.0797,0.0789,0.0895,0.0895,0.0896,0,0,0.1172,0.1155,0.1115,0.1096,0.1068,0.1059,0.105,0.1023,0.1015,0.0967,0.0973,0.0943,0.0887,0.0866,0.0848,0.0783,0.0788,0.0773,0.074,0.0709,0.0701,0.0695,0.0669,0.0661,0.0767,0.0767,0.0767,0,0.1147,0.1097,0.1093,0.1056,0.1036,0.1044,0.1003,0.0985,0.0948,0.0934,0.0947,0.0876,0.0858,0.08,0.0784,0.077,0.0757,0.0775,0.0703,0.0696,0.069,0.0666,0.0656,0.0765,0.0766,0.0766,0.0766,0,0.1068,0.1032,0.1003,0.0968,0.0945,0.0906,0.0896,0.0873,0.0874,0.0863,0.0814,0.0793,0.0757,0.0743,0.0743,0.0684,0.0692,0.0704,0.0728,0.0679,0.0656,0.0647,0.0763,0.0763,0.0764,0.0764,0,0,0.0994,0.0957,0.0947,0.093,0.09,0.0872,0.0834,0.0799,0.0779,0.0754,0.072,0.0672,0.0683,0.0663,0.0661,0.0633,0.0581,0.0649,0.0648,0.0635,0.0513,0.0503,0.0492,0.0585,0.0583,0.0582,0.0515,0,0.0932,0.0863,0.0859,0.0797,0.0763,0.0771,0.0737,0.0714,0.0704,0.0674,0.0662,0.0628,0.0646,0.0633,0.0607,0.0593,0.0556,0.0598,0.0552,0.0551,0.0557,0.0481,0.0469,0.0407,0.0506,0.0505,0.0504,0,0.085,0.0822,0.0756,0.073,0.0716,0.0686,0.0653,0.0625,0.0599,0.0593,0.0571,0.0572,0.0532,0.0558,0.0501,0.053,0.0511,0.0502,0.0499,0.0493,0.0523,0.0471,0.0387,0.0377,0.049,0.0491,0.0492,0,0.0801,0.0747,0.07,0.0686,0.0655,0.0633,0.0619,0.0596,0.0575,0.0547,0.0533,0.05,0.0481,0.0456,0.0448,0.0468,0.0391,0.0417,0.0383,0.0383,0.0365,0.0366,0.0275,0.0356,0.0356,0.0357,0.0357,0,0.073,0.0689,0.0678,0.0649,0.0603,0.0599,0.0553,0.0541,0.0519,0.0488,0.0492,0.0462,0.0455,0.0423,0.0417,0.037,0.0362,0.0356,0.0354,0.0354,0.0354,0.034,0.0343,0.0354,0.0355,0.0355,0.0356,0,0.0667,0.0658,0.0607,0.0582,0.0575,0.0542,0.052,0.0492,0.0483,0.0443,0.0433,0.0418,0.0381,0.0371,0.0327,0.0323,0.0267,0.027,0.0275,0.0275,0.0241,0.0243,0.0136,0.0121,0.0214,0.0213,0.0212,0,0.0622,0.059,0.0562,0.0542,0.0527,0.0493,0.0472,0.0467,0.0444,0.0413,0.0388,0.0352,0.0323,0.0263,0.0248,0.0214,0.0215,0.018,0.021,0.0211,0.0213,0.0214,0.021,0.0174,0.0173,0.0172,0.0171,0,0.0542,0.0539,0.0509,0.0476,0.0451,0.0425,0.04,0.0383,0.0374,0.0349,0.0311,0.0288,0.0243,0.0206,0.0172,0.0157,0.0162,0.0163,0.0153,0.0151,0.0154,0.015,0.0258,0.0164,0.0165,0.0166,0.0166,0.0166,0.0485,0.0457,0.0433,0.0398,0.0379,0.0356,0.0328,0.0315,0.0284,0.0247,0.0246,0.0205,0.018,0.0134,0.0118,0.0085,0.0095,0.0081,0.0077,0.0073,0.007,0.0162,0.0079,0.0079,0.0079,0.0079,0.0079,0,0.0404,0.0389,0.0357,0.0323,0.0295,0.0304,0.0277,0.0253,0.0217,0.0193,0.0164,0.0121,0.0085,0.0068,0.0032,0.0009,0.001,-0.0,0.0001,-0.0003,0.0063,0.0074,-0.0001,-0.0001,-0.0001,-0.0001,-0.0,-0.0,0.0358,0.0311,0.0305,0.0248,0.0233,0.0193,0.0177,0.0155,0.0136,0.0087,0.0058,0.0047,0.0025,-0.0011,-0.0044,-0.0048,-0.0062,-0.0074,-0.0078,-0.0016,-0.0008,-0.0,0.001,-0.0077,-0.0077,-0.0142,-0.0142,-0.0143]}]]